Weather History for Louisville, KY

Change the Weather History Date:

Saturday, January 5, 2013

  Actual Average Record
Temperature  
Mean Temperature 35 °F 35 °F  
Max Temperature 46 °F 43 °F 68 °F (2007)
Min Temperature 24 °F 27 °F -20 °F (1884)
Degree Days  
Heating Degree Days 30 30  
Month to date heating degree days 160 150  
Since 1 July heating degree days 1651 1726  
Cooling Degree Days 0 0  
Month to date cooling degree days 0 0  
Year to date cooling degree days 0 0  
Moisture  
Dew Point 26 °F    
Average Humidity 67    
Maximum Humidity 92    
Minimum Humidity 42    
Precipitation  
Precipitation 0.00 in 0.11 in 1.18 in (1966)
Month to date precipitation 0.07 0.54  
Year to date precipitation 0.07 0.54  
Snow  
Snow 0.00 in 0.10 in 3.00 in (1910)
Month to date snowfall T 0.5  
Since 1 July snowfall 2.7 3.3  
Snow Depth 0.00 in    
Sea Level Pressure  
Sea Level Pressure 30.32 in    
Wind  
Wind Speed 4 mph (SSW)    
Max Wind Speed 15 mph    
Max Gust Speed 17 mph    
Visibility 9 miles    
Events      
T = Trace of Precipitation, MM = Missing Value Source: NWS Daily Summary

Daily Weather History Graph

Daily Weather History Graph

Search for Another Location

Airport:

Trip Planner

Search our weather history database for the weather conditions in past years. The results will help you decide how hot, cold, wet, or windy it might be!

Date:

Astronomy

Jan. 05, 2013 Rise Set
Actual Time 7:59 AM EST 5:37 PM EST
Civil Twilight 7:30 AM EST 6:06 PM EST
Nautical Twilight 6:57 AM EST 6:39 PM EST
Astronomical Twilight 6:25 AM EST 7:11 PM EST
Moon 1:08 AM EST (1/5) 12:24 PM EST (1/5)
Length of Visible Light 10h 36m
Length of Day
9h 37m
Last Quarter, 44% of the Moon is Illuminated
Jan 5
Last Quarter
Jan 11
New
Jan 18
First Quarter
Jan 26
Full
Feb 3
Last Quarter

Hourly Weather History & Observations

Time (EST) Temp. Windchill Dew Point Humidity Pressure Visibility Wind Dir Wind Speed Gust Speed Precip Events Conditions
12:56 AM 28.9 °F - 23.0 °F 78% 30.39 in 9.0 mi Calm Calm - N/A   Partly Cloudy
1:56 AM 28.9 °F - 23.0 °F 78% 30.38 in 10.0 mi Calm Calm - N/A   Clear
2:56 AM 26.1 °F - 21.9 °F 84% 30.39 in 8.0 mi Calm Calm - N/A   Clear
3:56 AM 26.1 °F 21.9 °F 21.9 °F 84% 30.39 in 8.0 mi ESE 3.5 mph - N/A   Clear
4:56 AM 27.0 °F 21.6 °F 23.0 °F 85% 30.39 in 8.0 mi SSE 4.6 mph - N/A   Clear
5:56 AM 26.1 °F - 23.0 °F 88% 30.40 in 8.0 mi Calm Calm - N/A   Partly Cloudy
6:56 AM 26.1 °F - 21.9 °F 84% 30.40 in 8.0 mi Calm Calm - N/A   Clear
7:56 AM 24.8 °F 17.9 °F 21.2 °F 86% 30.38 in 7.0 mi SE 5.8 mph - N/A   Partly Cloudy
8:56 AM 26.6 °F 21.2 °F 24.8 °F 93% 30.38 in 6.0 mi SSE 4.6 mph - N/A   Partly Cloudy
9:56 AM 30.9 °F - 26.1 °F 82% 30.39 in 7.0 mi Calm Calm - N/A   Scattered Clouds
10:56 AM 37.0 °F 33.3 °F 28.0 °F 70% 30.37 in 9.0 mi SE 4.6 mph - N/A   Partly Cloudy
11:56 AM 42.1 °F 36.6 °F 28.0 °F 58% 30.36 in 10.0 mi SW 9.2 mph - N/A   Partly Cloudy
12:56 PM 44.1 °F 40.1 °F 26.1 °F 49% 30.31 in 10.0 mi SW 6.9 mph - N/A   Partly Cloudy
1:56 PM 46.0 °F 41.9 °F 25.0 °F 44% 30.26 in 10.0 mi WSW 8.1 mph - N/A   Mostly Cloudy
2:56 PM 45.0 °F 40.1 °F 26.1 °F 48% 30.25 in 10.0 mi WSW 9.2 mph - N/A   Overcast
3:56 PM 43.0 °F 36.8 °F 28.0 °F 56% 30.27 in 10.0 mi West 11.5 mph - N/A   Overcast
4:56 PM 42.1 °F 38.4 °F 28.0 °F 58% 30.25 in 10.0 mi WNW 5.8 mph - N/A   Overcast
5:56 PM 41.0 °F 39.0 °F 28.0 °F 60% 30.25 in 10.0 mi West 3.5 mph - N/A   Overcast
6:56 PM 41.0 °F 39.0 °F 28.4 °F 61% 30.24 in 10.0 mi SW 3.5 mph - N/A   Overcast
7:56 PM 39.9 °F 37.8 °F 28.0 °F 63% 30.25 in 10.0 mi SW 3.5 mph - N/A   Overcast
8:56 PM 41.0 °F 39.0 °F 28.0 °F 60% 30.25 in 10.0 mi SW 3.5 mph - N/A   Overcast
9:56 PM 39.9 °F 37.8 °F 28.0 °F 63% 30.24 in 10.0 mi SSW 3.5 mph - N/A   Overcast
10:56 PM 39.9 °F 37.8 °F 28.9 °F 65% 30.22 in 10.0 mi South 3.5 mph - N/A   Overcast
11:56 PM 39.9 °F 36.7 °F 28.9 °F 65% 30.21 in 10.0 mi South 4.6 mph - N/A   Overcast